Regional Weather Roundup
Issued by NWS Sterling, VA

Home | Current Version | Previous Version | Text Only | Print | Product List | Glossary Off
Versions: 1 2 3 4 5 6 7 8 9 10 11 12 13 14 15 16 17 18 19 20 21 22 23 24 25 26 27

000
ASUS41 KLWX 011010
RWRLWX

REGIONAL WEATHER ROUNDUP
NATIONAL WEATHER SERVICE BALTIMORE MD/WASHINGTON DC
600 AM EDT SUN MAY 01 2016

Note: "FAIR" indicates few or no clouds below 12,000 feet
with no significant weather and/or obstructions to visibility.
 TC=TEMPERATURE CELSIUS

 * =Non NWS site. Station does not report precipitation (e.g. rain,
    snow, etc.), thunder, or fog.

DCZ001-MDZ009-015-VAZ040>042-051-053>054-011100-
WASHINGTON METRO

CITY           SKY/WX    TMP DP  RH WIND       PRES   REMARKS
WASHINGTON NAT LGT RAIN  52  50  93 SE7       30.13F
DULLES         LGT RAIN  51  49  92 S9        30.10F
ANDREWS AFB    LGT RAIN  50  49  95 SE7       30.12S
FT BELVOIR     LGT RAIN  52  50  93 SE5       30.12F
QUANTICO       LGT RAIN  54  52  93 S13       30.13F
COLLEGE PARK*  CLOUDY    50  48  93 CALM      30.13S
LEESBURG*      LGT RAIN  52  52 100 S8        30.11S
MANASSAS*      CLOUDY    52  52 100 S7        30.11F
GAITHERSBURG*  CLOUDY    50  46  87 SE8       30.15S

$$

MDZ006>007-011-014-011100-
BALTIMORE METRO

CITY           SKY/WX    TMP DP  RH WIND       PRES   REMARKS
BWI AIRPORT    LGT RAIN  49  47  93 E5        30.13F FOG
MD SCIENCE CTR   N/A     51  47  86 MISG      30.15S
MARTIN STATE   LGT RAIN  52  48  87 E5        30.16S
ANNAPOLIS      LGT RAIN  52  48  86 MISG      30.14S
FORT MEADE*    CLOUDY    48  46  93 CALM      30.16R

$$

MDZ012-015-019>023-011100-
MARYLAND EASTERN SHORE

CITY           SKY/WX    TMP DP  RH WIND       PRES   REMARKS
OCEAN CITY     CLOUDY    51  48  89 E5        30.16R
SALISBURY      CLOUDY    50  48  93 CALM      30.17R
CAMBRIDGE*     CLOUDY    48  46  93 CALM      30.15S
EASTON*        RAIN     N/A N/A N/A SE3       30.18F

$$

MDZ017>025-011100-
SOUTHERN MARYLAND

CITY           SKY/WX    TMP DP  RH WIND       PRES   REMARKS
PATUXENT RIVER CLOUDY    53  49  86 S5        30.15F
ST INIGOES       N/A    N/A N/A N/A MISG        N/A
LEONARDTOWN*   CLOUDY    52  48  87 CALM      30.16R

$$

MDZ003>005-011100-
NORTH CENTRAL MARYLAND

CITY           SKY/WX    TMP DP  RH WIND       PRES   REMARKS
FREDERICK*     LGT RAIN  50  50 100 SE6       30.13S
HAGERSTOWN APT LGT RAIN  52  49  89 S9        30.07F
WESTMINSTER*   RAIN      48  45  87 SE7       30.11S

$$

MDZ501>502-011100-
WESTERN MARYLAND

CITY           SKY/WX    TMP DP  RH WIND       PRES   REMARKS
OAKLAND*       CLOUDY    52  52 100 S12       30.00S FOG
CUMBERLAND*    CLOUDY    52  52 100 CALM      30.05F

$$

VAZ025>031-011100-
SHENANDOAH VALLEY

CITY           SKY/WX    TMP DP  RH WIND       PRES   REMARKS
WINCHESTER*    DRIZZLE   52  52 100 S9        30.05F
FRONT ROYAL*   CLOUDY    52  52 100 CALM      30.05F
LURAY*         LGT RAIN  52  52 100 SW5       30.06S
NEW MARKET*    CLOUDY    53  52  97 W3        30.05S
STAUNTON*      LGT RAIN  55  55 100 SW6       30.09R
WAYNESBORO*    CLOUDY    51  50  97 MISG      30.07S

$$

WVZ021-048>050-054>055-011100-
EASTERN WEST VIRGINIA PANHANDLE

CITY           SKY/WX    TMP DP  RH WIND       PRES   REMARKS
MARTINSBURG    LGT RAIN  51  50  96 SE6       30.06S
PETERSBURG*    RAIN      56  54  94 S10       30.03S

$$

VAZ036>039-050-011100-
CENTRAL FOOTHILLS

CITY           SKY/WX    TMP DP  RH WIND       PRES   REMARKS
CHARLOTTESVILL LGT RAIN  53  51  93 S6        30.10F
CULPEPER*      LGT RAIN  53  53  99 S3        30.11F
ORANGE*        RAIN      52  52 100 CALM      30.11F
GORDONSVILLE*  CLOUDY    52  52  99 SE5       30.09F
WARRENTON*     DRIZZLE   53  48  83 SE5       30.10F

$$

VAZ055>057-011100-
NORTH AND CENTRAL PIEDMONT

CITY           SKY/WX    TMP DP  RH WIND       PRES   REMARKS
FREDERICKSBRG* RAIN      52  52 100 SE5       30.12F
STAFFORD*      LGT RAIN  51  50  96 SE3       30.16F

$$

NCZ024-NYZ072-PAZ021-071-VAZ022-071-011100-
OTHER REGIONAL OBSERVATIONS

CITY           SKY/WX    TMP DP  RH WIND       PRES   REMARKS
NEW YORK CITY  CLOUDY    50  36  58 VRB3      30.22S
PHILADELPHIA   LGT RAIN  49  42  77 E5        30.19S
PITTSBURGH     CLOUDY    57  55  93 S5        29.90F FOG
ROANOKE        LGT RAIN  54  53  97 E8        30.09S
RICHMOND       RAIN      52  51  97 SE3       30.13S
RALEIGH        CLOUDY    59  56  89 SE5       30.10F

$$

ANZ530>537-011100-
MARINE OBSERVATIONS

STATION/POSITION TIME  TEMP    WIND        PRES
                       AIR SEA DIR/SP/G
                 (UTC) (F)     (DEG/KT/KT) (MB)
THOMAS PT LIGHT  1000   52 57  150/  9/  9 1022.2R
BALT KEY BRIDGE  0900   51     130/  7/  9 1020.5F
COVE POINT       0900   54     190/ 10/ 11 1021.5R
LEWISETTA        0900   55 59  220/  3/  4 1021.1R
SOLOMONS ISLAND  0900   54 59  170/  6/  7   N/A
PINEY POINT      0900          180/  7/  8   N/A

$$





USA.gov is the U.S. government's official web portal to all federal, state and local government web resources and services.